FW7290 Weather Reports


time (UTC)temp
F
wind
direction
speed
knots
gust
knots
rain 1hr
in
rain 24hr
in
rain mn
in
humidity
%
barometer
mb
20210927075053 54 41 0.0 0.9 0.00 0.00 0.00 88 1012.2
20210927074551 54 272 0.9 0.9 0.00 0.00 0.00 88 1012.2
20210927074049 54 208 0.0 0.9 0.00 0.00 0.00 88 1012.4
20210927073546 54 198 0.0 0.0 0.00 0.00 0.00 88 1012.5
20210927073046 54 236 0.9 0.9 0.00 0.00 0.00 88 1012.5
20210927072544 54 208 0.0 0.0 0.00 0.00 0.00 88 1012.7
20210927072042 54 308 0.0 0.0 0.00 0.00 0.00 88 1012.5
20210927071541 54 273 0.0 0.0 0.00 0.00 0.00 88 1012.7
20210927071041 54 230 0.9 0.9 0.00 0.00 0.00 88 1012.6
20210927070540 54 186 0.0 0.0 0.00 0.00 0.00 88 1012.6
20210927070038 54 234 0.0 0.0 0.00 0.00 0.00 88 1012.7
20210927065537 54 221 0.0 0.0 0.00 0.00 0.00 88 1012.7
20210927065036 54 206 0.0 0.0 0.00 0.00 0.00 88 1012.9
20210927064535 54 289 0.0 0.0 0.00 0.00 0.00 88 1012.7
20210927064033 54 278 0.0 0.9 0.00 0.00 0.00 88 1012.9
20210927063532 54 189 0.0 0.0 0.00 0.00 0.00 87 1012.7
20210927063030 54 209 0.0 0.0 0.00 0.00 0.00 87 1013.1
20210927062528 54 255 0.0 0.0 0.00 0.00 0.00 87 1012.9
20210927062026 54 205 0.0 0.9 0.00 0.00 0.00 87 1013.0
20210927061512 54 232 0.0 0.9 0.00 0.00 0.00 87 1012.7
20210927061011 54 203 0.0 0.0 0.00 0.00 0.00 87 1013.0
20210927060508 54 291 0.9 1.7 0.00 0.00 0.00 87 1013.1
20210927060007 54 200 0.0 0.0 0.00 0.00 0.00 86 1012.9
20210927055506 55 210 0.0 0.9 0.00 0.00 0.00 86 1012.9
20210927055005 55 272 0.0 0.0 0.00 0.00 0.00 85 1012.8
20210927054504 55 197 0.0 0.0 0.00 0.00 0.00 86 1012.9
20210927054004 55 182 0.0 0.0 0.00 0.00 0.00 85 1013.0
20210927053503 55 244 0.0 0.0 0.00 0.00 0.00 85 1012.9
20210927053001 55 218 0.0 0.0 0.00 0.00 0.00 85 1012.6
20210927052500 55 149 0.0 0.0 0.00 0.00 0.00 85 1013.0
20210927051958 55 185 0.0 0.0 0.00 0.00 0.00 85 1012.9
20210927051456 55 211 0.0 0.0 0.00 0.00 0.00 84 1012.7
20210927050955 55 218 0.0 0.0 0.00 0.00 0.00 85 1013.0
20210927050453 55 215 0.0 0.0 0.00 0.00 0.00 85 1012.6
20210927045948 54 117 0.0 0.0 0.00 0.00 0.00 86 1012.8
20210927045448 55 117 0.0 0.0 0.00 0.00 0.00 85 1012.6
20210927044946 55 117 0.0 0.0 0.00 0.00 0.00 85 1012.7
20210927044445 55 117 0.0 0.0 0.00 0.00 0.00 85 1012.7
20210927043944 55 117 0.0 0.0 0.00 0.00 0.00 85 1012.8
20210927043443 55 117 0.0 0.0 0.00 0.00 0.00 85 1012.7
20210927042941 55 117 0.0 0.0 0.00 0.00 0.00 85 1012.7
20210927042439 55 119 0.0 0.0 0.00 0.00 0.00 84 1013.0
20210927041937 55 119 0.0 0.0 0.00 0.00 0.00 84 1012.6
20210927041436 55 197 0.0 0.0 0.00 0.00 0.00 84 1012.6
20210927040932 55 197 0.0 0.0 0.00 0.00 0.00 84 1012.7
20210927040428 56 197 0.0 0.0 0.00 0.00 0.00 83 1012.5
20210927035926 56 197 0.0 0.0 0.00 0.00 0.00 83 1012.4
20210927035423 56 197 0.0 0.0 0.00 0.00 0.00 82 1012.6
20210927034921 56 197 0.0 0.0 0.00 0.00 0.00 82 1012.6
20210927034421 56 209 0.0 0.0 0.00 0.00 0.00 82 1012.7
20210927033920 56 195 0.0 0.0 0.00 0.00 0.00 83 1012.5
20210927033419 56 74 0.0 0.0 0.00 0.00 0.00 83 1012.6
20210927032918 56 75 0.0 0.0 0.00 0.00 0.00 82 1012.5
20210927032416 56 75 0.0 0.0 0.00 0.00 0.00 82 1012.5
20210927031915 55 75 0.0 0.0 0.00 0.00 0.00 82 1012.4
20210927031409 55 74 0.0 0.0 0.00 0.00 0.00 83 1012.5
20210927030908 55 74 0.0 0.0 0.00 0.00 0.00 83 1012.5
20210927030407 55 73 0.0 0.0 0.00 0.00 0.00 83 1012.6
20210927025906 55 76 0.0 0.0 0.00 0.00 0.00 83 1012.4
20210927025402 55 40 0.0 0.0 0.00 0.00 0.00 83 1012.2
20210927024901 55 40 0.0 0.0 0.00 0.00 0.00 83 1012.4
20210927024401 55 40 0.0 0.0 0.00 0.00 0.00 83 1012.4
20210927023901 55 40 0.0 0.0 0.00 0.00 0.00 82 1012.4
20210927023359 55 40 0.0 0.0 0.00 0.00 0.00 82 1012.4
20210927022858 55 39 0.0 0.0 0.00 0.00 0.00 82 1012.4
20210927022356 55 39 0.0 0.0 0.00 0.00 0.00 82 1012.6
20210927021854 55 39 0.0 0.0 0.00 0.00 0.00 82 1012.1
20210927021353 55 39 0.0 0.0 0.00 0.00 0.00 81 1012.3
20210927020852 56 39 0.0 0.0 0.00 0.00 0.00 81 1012.2
20210927020350 56 39 0.0 0.0 0.00 0.00 0.00 80 1012.2
20210927015848 56 83 0.0 0.0 0.00 0.00 0.00 80 1012.1
20210927015346 56 83 0.0 0.0 0.00 0.00 0.00 79 1012.2
20210927014845 56 83 0.0 0.0 0.00 0.00 0.00 78 1012.2
20210927014344 57 83 0.0 0.0 0.00 0.00 0.00 78 1012.0
20210927013842 57 83 0.0 0.0 0.00 0.00 0.00 77 1012.1
20210927013341 57 83 0.0 0.0 0.00 0.00 0.00 77 1012.0
20210927012839 57 83 0.0 0.0 0.00 0.00 0.00 77 1012.0
20210927012338 57 83 0.0 0.0 0.00 0.00 0.00 77 1012.3
20210927011834 57 83 0.0 0.0 0.00 0.00 0.00 76 1012.2
20210927011333 57 83 0.0 0.0 0.00 0.00 0.00 75 1012.2
20210927010832 57 83 0.0 0.0 0.00 0.00 0.00 75 1011.8
20210927010331 57 83 0.0 0.0 0.00 0.00 0.00 75 1011.9
20210927005827 58 83 0.0 0.0 0.00 0.00 0.00 74 1011.9
20210927005325 58 83 0.0 0.0 0.00 0.00 0.00 74 1011.8
20210927004826 58 83 0.0 0.0 0.00 0.00 0.00 73 1011.6
20210927004323 58 83 0.0 0.0 0.00 0.00 0.00 73 1011.9
20210927003822 58 83 0.0 0.0 0.00 0.00 0.00 72 1011.6
20210927003320 59 83 0.0 0.0 0.00 0.00 0.00 71 1011.7
20210927002819 59 83 0.0 0.0 0.00 0.00 0.00 71 1011.7
20210927002318 59 83 0.0 0.0 0.00 0.00 0.00 70 1011.6
20210927001817 59 83 0.0 0.0 0.00 0.00 0.00 69 1011.5
20210927001317 59 83 0.0 0.0 0.00 0.00 0.00 69 1011.4
20210927000816 59 83 0.0 0.0 0.00 0.00 0.00 68 1011.5
20210927000316 60 82 0.0 0.0 0.00 0.00 0.00 68 1011.4
20210926235813 60 83 0.0 0.0 0.00 0.00 0.00 67 1011.3
20210926235312 60 83 0.0 0.0 0.00 0.00 0.00 66 1011.3
20210926234809 60 82 0.0 0.0 0.00 0.00 0.00 66 1011.1
20210926234308 60 82 0.0 0.0 0.00 0.00 0.00 66 1011.2
20210926233808 61 83 0.0 0.0 0.00 0.00 0.00 65 1010.9
20210926233306 61 83 0.0 0.0 0.00 0.00 0.00 64 1010.9
20210926232805 61 83 0.0 0.0 0.00 0.00 0.00 63 1010.7
20210926232305 61 83 0.0 0.0 0.00 0.00 0.00 61 1010.7
20210926231803 62 83 0.0 0.0 0.00 0.00 0.00 60 1010.7
20210926231301 62 83 0.0 0.0 0.00 0.00 0.00 59 1010.7
20210926230801 62 83 0.0 0.0 0.00 0.00 0.00 58 1010.7
20210926230300 63 83 0.0 0.0 0.00 0.00 0.00 57 1010.9
20210926225758 63 83 0.0 0.0 0.00 0.00 0.00 55 1010.6
20210926225257 64 83 0.0 0.0 0.00 0.00 0.00 54 1010.6
20210926224756 64 332 0.0 0.0 0.00 0.00 0.00 53 1010.9
20210926224256 65 332 0.0 0.0 0.00 0.00 0.00 52 1010.6
20210926223755 65 248 0.0 0.0 0.00 0.00 0.00 51 1010.6
20210926223252 66 290 0.0 0.0 0.00 0.00 0.00 50 1010.6
20210926222751 66 248 0.0 0.0 0.00 0.00 0.00 49 1010.6
20210926222243 66 236 0.0 0.0 0.00 0.00 0.00 48 1010.5
20210926221742 67 289 0.9 0.9 0.00 0.00 0.00 48 1010.3
20210926221240 67 279 1.7 1.7 0.00 0.00 0.00 47 1010.3
20210926220738 67 291 0.0 0.9 0.00 0.00 0.00 47 1010.4
20210926220237 68 332 0.9 0.9 0.00 0.00 0.00 48 1010.4
20210926215734 68 196 0.0 0.9 0.00 0.00 0.00 45 1010.2
20210926215233 68 190 0.0 0.0 0.00 0.00 0.00 46 1010.2
20210926214732 68 234 0.0 0.9 0.00 0.00 0.00 45 1010.4
20210926214229 68 303 0.9 0.9 0.00 0.00 0.00 45 1010.4
20210926213728 69 192 0.9 1.7 0.00 0.00 0.00 43 1010.2
20210926213226 69 273 1.7 1.7 0.00 0.00 0.00 42 1010.1
20210926212725 69 258 0.9 1.7 0.00 0.00 0.00 42 1010.2
20210926212224 69 222 1.7 1.7 0.00 0.00 0.00 41 1010.2
20210926211724 69 214 1.7 2.6 0.00 0.00 0.00 41 1010.2
20210926211223 69 240 2.6 2.6 0.00 0.00 0.00 40 1010.1
20210926210722 69 155 0.9 1.7 0.00 0.00 0.00 42 1010.0
20210926210221 69 194 0.9 0.9 0.00 0.00 0.00 43 1010.2
20210926205720 69 209 1.7 1.7 0.00 0.00 0.00 42 1010.2
20210926205219 70 274 1.7 1.7 0.00 0.00 0.00 42 1009.9
20210926204717 70 189 0.9 0.9 0.00 0.00 0.00 41 1010.3
20210926204215 70 303 3.5 4.3 0.00 0.00 0.00 40 1010.0
20210926203713 70 291 2.6 2.6 0.00 0.00 0.00 40 1010.0
20210926203213 71 233 1.7 1.7 0.00 0.00 0.00 40 1010.0
20210926202711 71 274 1.7 1.7 0.00 0.00 0.00 40 1010.2
20210926202211 71 245 2.6 4.3 0.00 0.00 0.00 41 1010.4
20210926201709 72 209 2.6 2.6 0.00 0.00 0.00 39 1010.2
20210926201208 72 281 0.9 0.9 0.00 0.00 0.00 41 1010.2
20210926200707 72 258 1.7 2.6 0.00 0.00 0.00 42 1010.2
20210926200205 71 242 2.6 4.3 0.00 0.00 0.00 42 1010.2
20210926195705 71 261 4.3 5.2 0.00 0.00 0.00 42 1010.1
20210926195202 71 279 2.6 4.3 0.00 0.00 0.00 43 1010.2
20210926194702 71 312 0.9 0.9 0.00 0.00 0.00 42 1010.2
20210926194201 71 237 4.3 4.3 0.00 0.00 0.00 41 1010.1
20210926193700 72 243 3.5 4.3 0.00 0.00 0.00 40 1010.0
20210926193159 72 161 2.6 2.6 0.00 0.00 0.00 42 1010.2
20210926192658 72 244 4.3 5.2 0.00 0.00 0.00 40 1010.2
20210926192157 73 246 4.3 5.2 0.00 0.00 0.00 39 1010.0
20210926191656 73 202 3.5 5.2 0.00 0.00 0.00 40 1010.0
20210926191153 73 240 2.6 4.3 0.00 0.00 0.00 41 1010.0
20210926190646 72 231 2.6 6.1 0.00 0.00 0.00 41 1009.9
20210926190146 73 253 3.5 5.2 0.00 0.00 0.00 42 1009.9
20210926185645 72 288 1.7 2.6 0.00 0.00 0.00 41 1009.9
20210926185139 73 144 2.6 4.3 0.00 0.00 0.00 41 1009.9
20210926184639 72 233 1.7 2.6 0.00 0.00 0.00 42 1010.0
20210926184139 73 211 2.6 4.3 0.00 0.00 0.00 42 1010.1
20210926183637 73 219 0.9 0.9 0.00 0.00 0.00 42 1010.1
20210926183134 72 190 2.6 4.3 0.00 0.00 0.00 42 1010.2
20210926182634 71 135 0.9 0.9 0.00 0.00 0.00 44 1010.3
20210926182133 71 233 2.6 4.3 0.00 0.00 0.00 43 1010.2
20210926181633 71 257 5.2 7.0 0.00 0.00 0.00 42 1010.1
20210926181133 71 233 4.3 6.1 0.00 0.00 0.00 43 1010.5
20210926180631 71 235 3.5 5.2 0.00 0.00 0.00 43 1010.3
20210926180129 72 254 2.6 4.3 0.00 0.00 0.00 43 1010.5
20210926175629 69 190 0.0 0.9 0.00 0.00 0.00 46 1010.4
20210926175127 70 209 3.5 5.2 0.00 0.00 0.00 44 1010.4
20210926174626 71 125 0.9 1.7 0.00 0.00 0.00 46 1010.5
20210926174124 71 191 3.5 5.2 0.00 0.00 0.00 44 1010.7
20210926173622 70 186 0.0 0.9 0.00 0.00 0.00 45 1010.4
20210926173120 70 197 0.0 0.9 0.00 0.00 0.00 45 1010.4
20210926172614 69 116 0.9 1.7 0.00 0.00 0.00 46 1010.6
20210926172113 69 249 2.6 2.6 0.00 0.00 0.00 48 1010.9
20210926171612 69 270 2.6 4.3 0.00 0.00 0.00 47 1010.8
20210926171108 68 219 4.3 7.8 0.00 0.00 0.00 49 1011.0
20210926170607 68 257 5.2 7.0 0.00 0.00 0.00 50 1011.0
20210926170106 69 208 2.6 2.6 0.00 0.00 0.00 49 1010.9
20210926165602 69 309 0.9 1.7 0.00 0.00 0.00 49 1011.1
20210926165100 68 126 0.0 0.0 0.00 0.00 0.00 53 1011.2
20210926164600 67 276 4.3 6.1 0.00 0.00 0.00 51 1011.3
20210926164059 68 333 0.9 0.9 0.00 0.00 0.00 53 1011.3
20210926163558 68 169 0.9 0.9 0.00 0.00 0.00 52 1011.2
20210926163057 69 246 2.6 2.6 0.00 0.00 0.00 50 1011.2
20210926162556 69 204 2.6 2.6 0.00 0.00 0.00 50 1011.1
20210926162055 68 240 3.5 4.3 0.00 0.00 0.00 49 1011.4
20210926161553 68 170 1.7 2.6 0.00 0.00 0.00 49 1011.4
20210926161051 68 251 0.9 0.9 0.00 0.00 0.00 51 1011.3
20210926160551 68 247 7.0 8.7 0.00 0.00 0.00 49 1011.5
20210926160049 68 251 0.0 0.9 0.00 0.00 0.00 51 1011.3
20210926155548 68 258 2.6 2.6 0.00 0.00 0.00 49 1011.7
20210926155045 68 170 0.0 0.0 0.00 0.00 0.00 52 1011.5
20210926154544 67 267 0.9 0.9 0.00 0.00 0.00 53 1011.7
20210926154041 67 169 0.0 0.0 0.00 0.00 0.00 53 1011.7
20210926153541 67 246 3.5 5.2 0.00 0.00 0.00 53 1011.8
20210926153039 66 223 3.5 4.3 0.00 0.00 0.00 54 1011.8
20210926152536 66 206 1.7 2.6 0.00 0.00 0.00 55 1011.9
20210926152036 67 221 3.5 4.3 0.00 0.00 0.00 53 1011.8
20210926151535 66 195 4.3 5.2 0.00 0.00 0.00 53 1011.9
20210926151031 66 273 2.6 2.6 0.00 0.00 0.00 52 1012.3
20210926150530 66 220 0.0 1.7 0.00 0.00 0.00 54 1012.1
20210926150028 66 189 0.0 0.9 0.00 0.00 0.00 54 1012.1
20210926145523 66 201 0.0 0.9 0.00 0.00 0.00 54 1011.9
20210926145022 65 225 2.6 5.2 0.00 0.00 0.00 54 1011.7
20210926144521 65 88 0.0 0.0 0.00 0.00 0.00 56 1011.9
20210926144020 65 343 1.7 1.7 0.00 0.00 0.00 56 1011.7
20210926143519 65 138 0.0 0.9 0.00 0.00 0.00 56 1011.8
20210926143017 64 168 0.9 0.9 0.00 0.00 0.00 59 1011.8
20210926142515 63 186 0.0 0.9 0.00 0.00 0.00 61 1011.9
20210926142014 64 238 3.5 5.2 0.00 0.00 0.00 58 1011.8
20210926141512 63 113 0.0 0.0 0.00 0.00 0.00 59 1011.9
20210926141010 63 127 0.0 0.0 0.00 0.00 0.00 60 1012.0
20210926140509 64 237 2.6 2.6 0.00 0.00 0.00 59 1011.6
20210926140007 63 226 0.9 1.7 0.00 0.00 0.00 65 1011.9
20210926135506 62 229 0.9 0.9 0.00 0.00 0.00 69 1011.7
20210926135005 62 161 0.0 0.0 0.00 0.00 0.00 67 1011.8
20210926134504 62 251 2.6 2.6 0.00 0.00 0.00 67 1011.8
20210926134003 62 168 0.9 1.7 0.00 0.00 0.00 68 1011.9
20210926133502 62 192 0.0 0.9 0.00 0.00 0.00 70 1011.8
20210926132954 62 238 2.6 2.6 0.00 0.00 0.00 70 1011.8
20210926132452 62 167 0.0 0.0 0.00 0.00 0.00 71 1011.7
20210926131949 62 356 1.7 1.7 0.00 0.00 0.00 72 1011.8
20210926131448 62 155 0.0 0.0 0.00 0.00 0.00 73 1011.6
20210926130943 61 151 0.9 0.9 0.00 0.00 0.00 74 1011.9
20210926130442 61 273 0.0 0.0 0.00 0.00 0.00 75 1011.6
20210926125934 61 142 1.7 2.6 0.00 0.00 0.00 75 1011.6
20210926125431 61 274 1.7 2.6 0.00 0.00 0.00 74 1011.6
20210926124930 61 175 1.7 4.3 0.00 0.00 0.00 74 1012.0
20210926124430 61 261 0.9 1.7 0.00 0.00 0.00 74 1011.7
20210926123928 61 220 0.9 0.9 0.00 0.00 0.00 75 1011.9
20210926123427 61 81 2.6 5.2 0.00 0.00 0.00 74 1011.8
20210926122927 61 218 1.7 2.6 0.00 0.00 0.00 75 1011.4
20210926122427 60 345 1.7 1.7 0.00 0.00 0.00 76 1011.4
20210926121926 60 244 1.7 2.6 0.00 0.00 0.00 75 1011.7
20210926121425 60 199 0.0 0.9 0.00 0.00 0.00 76 1011.5
20210926120924 60 216 0.9 0.9 0.00 0.00 0.00 77 1011.6
20210926120424 59 307 0.9 1.7 0.00 0.00 0.00 77 1011.6
20210926115922 59 185 0.0 0.0 0.00 0.00 0.00 77 1011.5
20210926115422 59 195 0.0 0.9 0.00 0.00 0.00 77 1011.5
20210926114921 59 206 0.0 0.9 0.00 0.00 0.00 77 1011.2
20210926114419 59 181 0.0 0.0 0.00 0.00 0.00 77 1011.3
20210926113918 59 189 0.9 0.9 0.00 0.00 0.00 76 1011.5
20210926113417 59 224 0.0 0.0 0.00 0.00 0.00 76 1011.5
20210926112915 59 185 0.9 0.9 0.00 0.00 0.00 75 1011.7
20210926112414 60 337 1.7 2.6 0.00 0.00 0.00 75 1011.7
20210926111913 59 140 0.0 0.0 0.00 0.00 0.00 75 1011.4
20210926111411 59 182 0.0 0.9 0.00 0.00 0.00 75 1011.1
20210926110910 59 246 0.9 2.6 0.00 0.00 0.00 74 1011.4
20210926110406 59 270 0.9 0.9 0.00 0.00 0.00 75 1011.5
20210926105902 59 249 0.0 0.0 0.00 0.00 0.00 75 1011.4
20210926105400 59 219 0.9 0.9 0.00 0.00 0.00 76 1011.3
20210926104857 59 221 0.0 0.0 0.00 0.00 0.00 76 1011.4
20210926104354 59 196 0.0 0.0 0.00 0.00 0.00 77 1011.4
20210926103854 59 229 0.0 0.9 0.00 0.00 0.00 76 1011.3
20210926103352 59 177 0.0 0.0 0.00 0.00 0.00 76 1011.2
20210926102851 59 223 0.0 0.0 0.00 0.00 0.00 75 1010.9
20210926102350 59 217 0.0 0.9 0.00 0.00 0.00 76 1011.0
20210926101849 59 200 0.0 0.0 0.00 0.00 0.00 77 1011.2
20210926101346 59 155 0.0 0.0 0.00 0.00 0.00 77 1011.0
20210926100845 59 170 0.0 0.0 0.00 0.00 0.00 78 1010.9
20210926100340 60 113 0.0 0.0 0.00 0.00 0.00 77 1011.0
20210926095840 60 113 0.0 0.0 0.00 0.00 0.00 77 1010.8
20210926095338 60 163 0.0 0.9 0.00 0.00 0.00 77 1010.9
20210926094837 60 139 0.0 0.0 0.00 0.00 0.00 78 1010.9
20210926094333 60 214 0.0 0.9 0.00 0.00 0.00 77 1010.9
20210926093833 60 138 0.0 0.0 0.00 0.00 0.00 78 1011.1
20210926093333 61 176 0.0 0.0 0.00 0.00 0.00 78 1010.7
20210926092831 61 203 0.9 1.7 0.00 0.00 0.00 77 1011.0
20210926092329 61 225 0.9 1.7 0.00 0.00 0.00 77 1010.9
20210926091829 61 227 0.0 0.0 0.00 0.00 0.00 77 1010.6
20210926091327 62 225 1.7 1.7 0.00 0.00 0.00 77 1011.0
20210926090825 62 222 2.6 2.6 0.00 0.00 0.00 78 1010.9
20210926090321 62 163 0.0 0.0 0.00 0.00 0.00 78 1010.6
20210926085820 62 192 0.9 1.7 0.00 0.00 0.00 79 1010.7
20210926085319 61 100 0.9 2.6 0.00 0.00 0.00 80 1010.5
20210926084818 61 224 0.9 1.7 0.00 0.00 0.00 82 1010.5
20210926084317 61 214 0.9 0.9 0.00 0.00 0.00 82 1010.6
20210926083816 61 208 0.0 0.0 0.00 0.00 0.00 83 1010.7
20210926083316 61 125 0.0 0.0 0.00 0.00 0.00 83 1010.6
20210926082815 62 244 0.0 0.9 0.00 0.00 0.00 83 1010.5
20210926082314 62 79 0.0 0.0 0.00 0.00 0.00 83 1010.5
20210926081812 62 197 0.0 0.9 0.00 0.00 0.00 83 1010.6
20210926081312 62 352 0.0 0.9 0.00 0.00 0.00 84 1010.6
20210926080811 62 172 0.9 0.9 0.00 0.00 0.00 83 1010.3
20210926080311 62 260 0.9 0.9 0.00 0.00 0.00 83 1010.6
20210926075810 62 167 0.0 0.0 0.00 0.00 0.00 83 1010.3